| time (UTC) | temp F | wind direction | speed MPH | gust MPH | rain 1hr in | rain 24hr in | rain mn in | humidity % | barometer mb |
| 20260506123548 | 38 | 270 | 0.0 | 14.0 | 0.00 | 0.00 | 0.00 | 93 | 848.2 |
| 20260506123048 | 38 | 315 | 11.0 | 12.0 | 0.00 | 0.00 | 0.00 | 93 | 849.4 |
| 20260506122548 | 38 | 315 | 10.0 | 13.0 | 0.00 | 0.00 | 0.00 | 93 | 849.6 |
| 20260506122048 | 38 | 315 | 13.0 | 13.0 | 0.00 | 0.00 | 0.00 | 93 | 849.0 |
| 20260506121548 | 38 | 315 | 0.0 | 8.0 | 0.00 | 0.00 | 0.00 | 93 | 847.6 |
| 20260506121048 | 39 | 315 | 8.0 | 13.0 | 0.00 | 0.00 | 0.00 | 93 | 847.6 |
| 20260506120548 | 39 | 315 | 13.0 | 13.0 | 0.00 | 0.00 | 0.00 | 93 | 848.1 |
| 20260506120048 | 39 | 0 | 0.0 | 8.0 | 0.00 | 0.00 | 0.00 | 93 | 847.7 |
| 20260506115548 | 39 | 292 | 4.0 | 12.0 | 0.00 | 0.00 | 0.00 | 93 | 847.1 |
| 20260506115048 | 39 | 315 | 9.0 | 57.0 | 0.00 | 0.00 | 0.00 | 93 | 847.4 |
| 20260506114548 | 40 | 270 | 0.0 | 10.0 | 0.00 | 0.00 | 0.00 | 93 | 847.2 |
| 20260506114048 | 40 | 292 | 8.0 | 12.0 | 0.00 | 0.00 | 0.00 | 93 | 847.2 |
| 20260506113549 | 41 | 337 | 9.0 | 10.0 | 0.00 | 0.00 | 0.00 | 93 | 847.1 |
| 20260506113048 | 41 | 315 | 6.0 | 90.0 | 0.00 | 0.00 | 0.00 | 93 | 846.8 |
| 20260506112548 | 41 | 292 | 2.0 | 8.0 | 0.00 | 0.00 | 0.00 | 93 | 846.9 |
| 20260506112048 | 40 | 315 | 5.0 | 91.0 | 0.00 | 0.00 | 0.00 | 93 | 846.9 |
| 20260506111549 | 39 | 315 | 6.0 | 16.0 | 0.00 | 0.00 | 0.00 | 94 | 846.7 |
| 20260506111049 | 38 | 292 | 2.0 | 10.0 | 0.00 | 0.00 | 0.00 | 93 | 846.8 |
| 20260506110548 | 38 | 315 | 5.0 | 13.0 | 0.00 | 0.00 | 0.00 | 93 | 846.9 |
| 20260506110048 | 37 | 270 | 0.0 | 19.0 | 0.00 | 0.00 | 0.00 | 93 | 847.1 |
| 20260506105548 | 37 | 292 | 9.0 | 18.0 | 0.00 | 0.00 | 0.00 | 93 | 847.0 |
| 20260506105048 | 37 | 337 | 4.0 | 7.0 | 0.00 | 0.00 | 0.00 | 93 | 847.1 |
| 20260506104548 | 37 | 315 | 14.0 | 14.0 | 0.00 | 0.00 | 0.00 | 93 | 847.2 |
| 20260506104048 | 37 | 337 | 1.0 | 20.0 | 0.00 | 0.00 | 0.00 | 93 | 847.2 |
| 20260506103549 | 37 | 315 | 4.0 | 10.0 | 0.00 | 0.00 | 0.00 | 93 | 847.8 |
| 20260506103048 | 37 | 315 | 7.0 | 10.0 | 0.00 | 0.00 | 0.00 | 93 | 847.3 |
| 20260506102548 | 37 | 292 | 6.0 | 12.0 | 0.00 | 0.00 | 0.00 | 93 | 847.7 |
| 20260506102048 | 37 | 315 | 4.0 | 13.0 | 0.00 | 0.00 | 0.00 | 93 | 851.1 |
| 20260506101548 | 37 | 315 | 6.0 | 16.0 | 0.00 | 0.00 | 0.00 | 93 | 849.0 |
| 20260506101049 | 37 | 315 | 13.0 | 17.0 | 0.00 | 0.00 | 0.00 | 93 | 849.5 |
| 20260506100548 | 37 | 315 | 10.0 | 16.0 | 0.00 | 0.00 | 0.00 | 93 | 847.1 |
| 20260506100048 | 37 | 315 | 16.0 | 19.0 | 0.00 | 0.00 | 0.00 | 93 | 850.1 |
| 20260506095548 | 37 | 315 | 13.0 | 19.0 | 0.00 | 0.00 | 0.00 | 93 | 847.4 |
| 20260506095048 | 37 | 337 | 8.0 | 17.0 | 0.00 | 0.00 | 0.00 | 93 | 850.0 |
| 20260506094548 | 38 | 292 | 17.0 | 19.0 | 0.00 | 0.00 | 0.00 | 93 | 851.1 |
| 20260506094048 | 38 | 292 | 5.0 | 13.0 | 0.00 | 0.00 | 0.00 | 93 | 847.3 |
| 20260506093548 | 37 | 292 | 11.0 | 16.0 | 0.00 | 0.00 | 0.00 | 93 | 847.8 |
| 20260506093048 | 37 | 292 | 10.0 | 16.0 | 0.00 | 0.00 | 0.00 | 93 | 847.2 |
| 20260506092548 | 37 | 270 | 0.0 | 13.0 | 0.00 | 0.00 | 0.00 | 93 | 847.2 |
| 20260506092048 | 37 | 315 | 7.0 | 14.0 | 0.00 | 0.00 | 0.00 | 93 | 847.3 |
| 20260506091548 | 37 | 315 | 8.0 | 15.0 | 0.00 | 0.00 | 0.00 | 93 | 847.2 |
| 20260506091048 | 37 | 315 | 10.0 | 16.0 | 0.00 | 0.00 | 0.00 | 93 | 847.2 |
| 20260506090548 | 37 | 337 | 10.0 | 16.0 | 0.00 | 0.00 | 0.00 | 93 | 846.8 |
| 20260506090048 | 37 | 315 | 13.0 | 106.0 | 0.00 | 0.00 | 0.00 | 93 | 846.8 |
| 20260506085548 | 36 | 315 | 3.0 | 11.0 | 0.00 | 0.00 | 0.00 | 93 | 846.8 |
| 20260506085049 | 36 | 315 | 9.0 | 13.0 | 0.00 | 0.00 | 0.00 | 93 | 847.3 |
| 20260506084548 | 35 | 292 | 7.0 | 40.0 | 0.00 | 0.00 | 0.00 | 93 | 846.8 |
| 20260506084048 | 35 | 292 | 14.0 | 14.0 | 0.00 | 0.00 | 0.00 | 93 | 846.7 |
| 20260506083548 | 34 | 315 | 9.0 | 15.0 | 0.00 | 0.00 | 0.00 | 93 | 846.5 |
| 20260506083048 | 34 | 315 | 13.0 | 109.0 | 0.00 | 0.00 | 0.00 | 93 | 847.0 |
| 20260506082549 | 35 | 292 | 12.0 | 15.0 | 0.00 | 0.00 | 0.00 | 93 | 847.1 |
| 20260506082048 | 35 | 315 | 8.0 | 14.0 | 0.00 | 0.00 | 0.00 | 94 | 846.6 |
| 20260506081548 | 35 | 315 | 10.0 | 12.0 | 0.00 | 0.00 | 0.00 | 94 | 846.7 |
| 20260506081048 | 34 | 0 | 0.0 | 93.0 | 0.00 | 0.00 | 0.00 | 93 | 847.7 |
| 20260506080548 | 34 | 315 | 10.0 | 14.0 | 0.00 | 0.00 | 0.00 | 93 | 847.9 |
| 20260506073049 | 33 | 292 | 2.0 | 11.0 | 0.00 | 0.00 | 0.00 | 93 | 849.5 |
| 20260506072549 | 34 | 315 | 3.0 | 4.0 | 0.00 | 0.00 | 0.00 | 93 | 850.0 |
| 20260506072050 | 34 | 292 | 4.0 | 5.0 | 0.00 | 0.00 | 0.00 | 93 | 850.7 |
| 20260506071549 | 34 | 292 | 4.0 | 10.0 | 0.00 | 0.00 | 0.00 | 93 | 850.9 |
| 20260506071049 | 34 | 292 | 4.0 | 5.0 | 0.00 | 0.00 | 0.00 | 93 | 851.1 |
| 20260506070550 | 34 | 292 | 3.0 | 4.0 | 0.00 | 0.00 | 0.00 | 93 | 850.0 |
| 20260506062049 | 35 | 292 | 4.0 | 6.0 | 0.00 | 0.00 | 0.00 | 94 | 848.0 |
| 20260506061549 | 35 | 292 | 5.0 | 7.0 | 0.00 | 0.00 | 0.00 | 94 | 847.9 |
| 20260506061050 | 35 | 292 | 7.0 | 8.0 | 0.00 | 0.00 | 0.00 | 94 | 847.7 |
| 20260506060549 | 35 | 292 | 8.0 | 59.0 | 0.00 | 0.00 | 0.00 | 94 | 847.5 |
| 20260506051049 | 35 | 292 | 9.0 | 10.0 | 0.00 | 0.00 | 0.00 | 94 | 847.5 |
| 20260506050549 | 34 | 315 | 6.0 | 10.0 | 0.00 | 0.00 | 0.00 | 94 | 847.3 |
| 20260506045049 | 35 | 292 | 8.0 | 8.0 | 0.00 | 0.00 | 0.00 | 94 | 847.8 |
| 20260506044549 | 35 | 292 | 7.0 | 8.0 | 0.00 | 0.00 | 0.00 | 94 | 847.7 |
| 20260506044049 | 35 | 292 | 8.0 | 8.0 | 0.00 | 0.00 | 0.00 | 94 | 848.1 |
| 20260506043549 | 35 | 315 | 6.0 | 9.0 | 0.00 | 0.00 | 0.00 | 94 | 848.3 |
| 20260506043049 | 35 | 292 | 7.0 | 8.0 | 0.00 | 0.00 | 0.00 | 94 | 848.6 |
| 20260506042549 | 35 | 292 | 6.0 | 8.0 | 0.00 | 0.00 | 0.00 | 94 | 848.4 |
| 20260506042050 | 35 | 292 | 3.0 | 9.0 | 0.00 | 0.00 | 0.00 | 94 | 848.7 |
| 20260506041549 | 35 | 315 | 7.0 | 10.0 | 0.00 | 0.00 | 0.00 | 94 | 849.2 |
| 20260506041049 | 35 | 292 | 6.0 | 11.0 | 0.00 | 0.00 | 0.00 | 93 | 849.0 |
| 20260506040549 | 35 | 292 | 3.0 | 12.0 | 0.00 | 0.00 | 0.00 | 93 | 849.9 |
| 20260506040049 | 35 | 315 | 5.0 | 13.0 | 0.00 | 0.00 | 0.00 | 93 | 849.8 |
| 20260506035550 | 35 | 292 | 8.0 | 13.0 | 0.00 | 0.00 | 0.00 | 93 | 849.4 |
| 20260506035049 | 35 | 292 | 13.0 | 13.0 | 0.00 | 0.00 | 0.00 | 93 | 849.0 |
| 20260506034550 | 35 | 292 | 11.0 | 12.0 | 0.00 | 0.00 | 0.00 | 93 | 848.7 |
| 20260506034049 | 35 | 292 | 7.0 | 10.0 | 0.00 | 0.00 | 0.00 | 93 | 848.7 |
| 20260506033549 | 35 | 292 | 10.0 | 10.0 | 0.00 | 0.00 | 0.00 | 93 | 849.0 |
| 20260506033049 | 35 | 292 | 7.0 | 10.0 | 0.00 | 0.00 | 0.00 | 93 | 849.4 |
| 20260506032549 | 35 | 315 | 10.0 | 11.0 | 0.00 | 0.00 | 0.00 | 93 | 849.2 |
| 20260506032050 | 35 | 292 | 6.0 | 8.0 | 0.00 | 0.00 | 0.00 | 93 | 849.0 |
| 20260506031549 | 35 | 315 | 6.0 | 9.0 | 0.00 | 0.00 | 0.00 | 93 | 849.4 |
| 20260506031049 | 35 | 315 | 6.0 | 10.0 | 0.00 | 0.00 | 0.00 | 93 | 849.2 |
| 20260506030549 | 35 | 292 | 9.0 | 11.0 | 0.00 | 0.00 | 0.00 | 93 | 848.2 |
| 20260506030049 | 35 | 315 | 8.0 | 9.0 | 0.00 | 0.00 | 0.00 | 93 | 848.2 |
| 20260506025549 | 35 | 315 | 6.0 | 8.0 | 0.00 | 0.00 | 0.00 | 93 | 848.4 |
| 20260506025049 | 35 | 315 | 2.0 | 6.0 | 0.00 | 0.00 | 0.00 | 93 | 848.2 |
| 20260506024549 | 35 | 315 | 2.0 | 7.0 | 0.00 | 0.00 | 0.00 | 93 | 848.3 |
| 20260506024049 | 35 | 292 | 6.0 | 8.0 | 0.00 | 0.00 | 0.00 | 93 | 848.3 |
| 20260506023550 | 35 | 292 | 8.0 | 8.0 | 0.00 | 0.00 | 0.00 | 93 | 848.6 |
| 20260506023049 | 35 | 315 | 7.0 | 54.0 | 0.00 | 0.00 | 0.00 | 93 | 848.6 |
| 20260506022549 | 35 | 292 | 11.0 | 60.0 | 0.00 | 0.00 | 0.00 | 93 | 848.8 |
| 20260506022050 | 35 | 315 | 6.0 | 9.0 | 0.00 | 0.00 | 0.00 | 93 | 848.9 |
| 20260506021550 | 35 | 315 | 5.0 | 8.0 | 0.00 | 0.00 | 0.00 | 93 | 848.6 |
| 20260506021050 | 35 | 315 | 4.0 | 6.0 | 0.00 | 0.00 | 0.00 | 93 | 848.8 |
| 20260506020550 | 35 | 315 | 5.0 | 5.0 | 0.00 | 0.00 | 0.00 | 93 | 848.8 |
| 20260506020049 | 35 | 315 | 3.0 | 6.0 | 0.00 | 0.00 | 0.00 | 93 | 848.7 |
| 20260506015549 | 35 | 315 | 6.0 | 84.0 | 0.00 | 0.00 | 0.00 | 93 | 848.8 |
| 20260506015049 | 35 | 315 | 6.0 | 101.0 | 0.00 | 0.00 | 0.00 | 93 | 849.1 |
| 20260506014549 | 35 | 315 | 8.0 | 9.0 | 0.00 | 0.00 | 0.00 | 93 | 848.9 |
| 20260506014050 | 35 | 337 | 8.0 | 100.0 | 0.00 | 0.00 | 0.00 | 93 | 849.0 |
| 20260506013549 | 35 | 315 | 7.0 | 10.0 | 0.00 | 0.00 | 0.00 | 93 | 849.0 |
| 20260506013049 | 35 | 292 | 6.0 | 7.0 | 0.00 | 0.00 | 0.00 | 93 | 849.1 |
| 20260506012549 | 35 | 315 | 0.0 | 8.0 | 0.00 | 0.00 | 0.00 | 93 | 849.2 |
| 20260506012049 | 35 | 315 | 6.0 | 8.0 | 0.00 | 0.00 | 0.00 | 93 | 849.1 |
| 20260506011550 | 36 | 45 | 0.0 | 6.0 | 0.00 | 0.00 | 0.00 | 93 | 849.1 |
| 20260506011049 | 36 | 90 | 3.0 | 7.0 | 0.00 | 0.00 | 0.00 | 93 | 849.1 |
| 20260506010549 | 36 | 22 | 2.0 | 7.0 | 0.00 | 0.00 | 0.00 | 93 | 849.0 |
| 20260506010049 | 36 | 315 | 1.0 | 11.0 | 0.00 | 0.00 | 0.00 | 93 | 849.0 |
| 20260506005550 | 36 | 315 | 4.0 | 10.0 | 0.00 | 0.00 | 0.00 | 93 | 849.1 |
| 20260506005050 | 36 | 315 | 0.0 | 48.0 | 0.00 | 0.00 | 0.00 | 93 | 849.2 |
| 20260506004549 | 36 | 315 | 2.0 | 29.0 | 0.00 | 0.00 | 0.00 | 93 | 849.2 |
| 20260506004049 | 36 | 315 | 1.0 | 63.0 | 0.00 | 0.00 | 0.00 | 93 | 849.3 |
| 20260506003549 | 36 | 315 | 3.0 | 65.0 | 0.00 | 0.00 | 0.00 | 93 | 849.2 |
| 20260506003049 | 36 | 315 | 6.0 | 99.0 | 0.00 | 0.00 | 0.00 | 93 | 849.2 |
| 20260506002550 | 36 | 315 | 1.0 | 9.0 | 0.00 | 0.00 | 0.00 | 93 | 849.1 |
| 20260506002050 | 36 | 315 | 4.0 | 101.0 | 0.00 | 0.00 | 0.00 | 93 | 849.3 |
| 20260506001550 | 36 | 315 | 4.0 | 67.0 | 0.00 | 0.00 | 0.00 | 93 | 849.2 |
| 20260506001050 | 36 | 315 | 3.0 | 30.0 | 0.00 | 0.00 | 0.00 | 93 | 849.2 |
| 20260506000550 | 36 | 22 | 30.0 | 30.0 | 0.00 | 0.00 | 0.00 | 93 | 849.2 |
| 20260506000050 | 36 | 315 | 7.0 | 7.0 | 0.00 | 0.00 | 0.00 | 93 | 849.2 |
| 20260505235550 | 36 | 315 | 6.0 | 10.0 | 0.00 | 0.00 | 0.00 | 93 | 849.2 |
| 20260505235050 | 36 | 315 | 8.0 | 10.0 | 0.00 | 0.00 | 0.00 | 93 | 849.1 |
| 20260505234550 | 36 | 315 | 7.0 | 10.0 | 0.00 | 0.00 | 0.00 | 93 | 849.1 |
| 20260505234050 | 36 | 292 | 0.0 | 10.0 | 0.00 | 0.00 | 0.00 | 93 | 849.1 |
| 20260505233550 | 36 | 337 | 7.0 | 8.0 | 0.00 | 0.00 | 0.00 | 93 | 849.1 |
| 20260505233050 | 36 | 337 | 6.0 | 13.0 | 0.00 | 0.00 | 0.00 | 93 | 849.2 |
| 20260505232550 | 36 | 22 | 4.0 | 10.0 | 0.00 | 0.00 | 0.00 | 93 | 849.2 |
| 20260505232050 | 36 | 22 | 3.0 | 6.0 | 0.00 | 0.00 | 0.00 | 93 | 849.2 |
| 20260505231550 | 36 | 45 | 1.0 | 9.0 | 0.00 | 0.00 | 0.00 | 93 | 849.4 |
| 20260505231050 | 36 | 90 | 4.0 | 10.0 | 0.00 | 0.00 | 0.00 | 93 | 849.3 |
| 20260505230551 | 36 | 0 | 5.0 | 8.0 | 0.00 | 0.00 | 0.00 | 93 | 849.3 |
| 20260505230050 | 36 | 0 | 6.0 | 10.0 | 0.00 | 0.00 | 0.00 | 93 | 849.3 |
| 20260505225550 | 36 | 337 | 10.0 | 15.0 | 0.00 | 0.00 | 0.00 | 93 | 849.2 |
| 20260505225052 | 36 | 315 | 8.0 | 60.0 | 0.00 | 0.00 | 0.00 | 93 | 849.3 |
| 20260505224550 | 36 | 315 | 1.0 | 102.0 | 0.00 | 0.00 | 0.00 | 93 | 849.8 |
| 20260505224051 | 36 | 315 | 6.0 | 17.0 | 0.00 | 0.00 | 0.00 | 93 | 849.9 |
| 20260505223551 | 36 | 315 | 7.0 | 7.0 | 0.00 | 0.00 | 0.00 | 93 | 849.9 |
| 20260505223050 | 36 | 0 | 0.0 | 5.0 | 0.00 | 0.00 | 0.00 | 93 | 850.1 |
| 20260505222550 | 36 | 45 | 1.0 | 68.0 | 0.00 | 0.00 | 0.00 | 93 | 850.0 |
| 20260505222050 | 36 | 135 | 68.0 | 85.0 | 0.00 | 0.00 | 0.00 | 93 | 849.9 |
| 20260505221550 | 35 | 22 | 5.0 | 63.0 | 0.00 | 0.00 | 0.00 | 93 | 850.0 |
| 20260505221050 | 35 | 0 | 5.0 | 7.0 | 0.00 | 0.00 | 0.00 | 93 | 849.8 |
| 20260505220656 | 36 | 45 | 5.0 | 7.0 | 0.00 | 0.00 | 0.00 | 93 | 850.0 |
| 20260505220550 | 36 | 45 | 5.0 | 7.0 | 0.00 | 0.00 | 0.00 | 93 | 850.0 |
| 20260505220050 | 36 | 315 | 1.0 | 10.0 | 0.00 | 0.00 | 0.00 | 93 | 849.9 |
| 20260505215550 | 36 | 22 | 5.0 | 13.0 | 0.00 | 0.00 | 0.00 | 93 | 849.9 |
| 20260505215052 | 36 | 67 | 10.0 | 13.0 | 0.00 | 0.00 | 0.00 | 93 | 849.8 |
| 20260505214550 | 36 | 67 | 13.0 | 14.0 | 0.00 | 0.00 | 0.00 | 93 | 849.8 |
| 20260505214050 | 36 | 67 | 6.0 | 7.0 | 0.00 | 0.00 | 0.00 | 93 | 849.9 |
| 20260505213550 | 36 | 45 | 4.0 | 10.0 | 0.00 | 0.00 | 0.00 | 93 | 850.0 |
| 20260505213050 | 36 | 22 | 6.0 | 97.0 | 0.00 | 0.00 | 0.00 | 93 | 850.0 |
| 20260505212551 | 36 | 0 | 0.0 | 104.0 | 0.00 | 0.00 | 0.00 | 93 | 850.0 |
| 20260505212050 | 36 | 315 | 101.0 | 101.0 | 0.00 | 0.00 | 0.00 | 93 | 850.2 |
| 20260505211550 | 36 | 22 | 6.0 | 95.0 | 0.00 | 0.00 | 0.00 | 93 | 850.2 |
| 20260505211050 | 36 | 337 | 8.0 | 70.0 | 0.00 | 0.00 | 0.00 | 93 | 850.0 |
| 20260505210550 | 36 | 315 | 7.0 | 9.0 | 0.00 | 0.00 | 0.00 | 93 | 850.3 |
| 20260505210050 | 37 | 0 | 0.0 | 6.0 | 0.00 | 0.00 | 0.00 | 93 | 850.3 |
| 20260505205550 | 36 | 315 | 1.0 | 14.0 | 0.00 | 0.00 | 0.00 | 93 | 850.3 |
| 20260505205050 | 36 | 0 | 0.0 | 7.0 | 0.00 | 0.00 | 0.00 | 93 | 850.5 |
| 20260505204550 | 37 | 45 | 3.0 | 9.0 | 0.00 | 0.00 | 0.00 | 93 | 850.6 |
| 20260505204050 | 37 | 0 | 5.0 | 9.0 | 0.00 | 0.00 | 0.00 | 93 | 850.5 |
| 20260505203550 | 37 | 67 | 8.0 | 12.0 | 0.00 | 0.00 | 0.00 | 93 | 850.8 |
| 20260505203050 | 37 | 45 | 5.0 | 7.0 | 0.00 | 0.00 | 0.00 | 93 | 850.8 |
| 20260505202550 | 37 | 0 | 4.0 | 10.0 | 0.00 | 0.00 | 0.00 | 93 | 850.9 |
| 20260505202050 | 37 | 90 | 1.0 | 8.0 | 0.00 | 0.00 | 0.00 | 93 | 850.9 |
| 20260505201550 | 37 | 337 | 8.0 | 10.0 | 0.00 | 0.00 | 0.00 | 93 | 851.1 |
| 20260505201050 | 37 | 315 | 7.0 | 15.0 | 0.00 | 0.00 | 0.00 | 93 | 851.0 |
| 20260505200550 | 37 | 315 | 5.0 | 11.0 | 0.00 | 0.00 | 0.00 | 93 | 851.0 |
| 20260505200050 | 37 | 315 | 1.0 | 12.0 | 0.00 | 0.00 | 0.00 | 93 | 851.0 |
| 20260505195551 | 37 | 337 | 3.0 | 10.0 | 0.00 | 0.00 | 0.00 | 93 | 850.9 |
| 20260505195050 | 37 | 315 | 2.0 | 10.0 | 0.00 | 0.00 | 0.00 | 93 | 850.7 |
| 20260505194550 | 37 | 337 | 6.0 | 8.0 | 0.00 | 0.00 | 0.00 | 93 | 850.6 |
| 20260505194050 | 38 | 45 | 4.0 | 6.0 | 0.00 | 0.00 | 0.00 | 93 | 850.9 |
| 20260505193550 | 38 | 67 | 0.0 | 2.0 | 0.00 | 0.00 | 0.00 | 93 | 850.7 |
| 20260505193050 | 38 | 22 | 0.0 | 5.0 | 0.00 | 0.00 | 0.00 | 93 | 850.9 |
| 20260505192550 | 38 | 45 | 1.0 | 6.0 | 0.00 | 0.00 | 0.00 | 93 | 851.0 |
| 20260505192050 | 38 | 112 | 0.0 | 6.0 | 0.00 | 0.00 | 0.00 | 93 | 851.1 |
| 20260505191550 | 38 | 112 | 0.0 | 7.0 | 0.00 | 0.00 | 0.00 | 93 | 851.2 |
| 20260505191050 | 38 | 22 | 5.0 | 9.0 | 0.00 | 0.00 | 0.00 | 93 | 851.2 |
| 20260505190550 | 38 | 337 | 6.0 | 7.0 | 0.00 | 0.00 | 0.00 | 93 | 850.3 |
| 20260505190051 | 38 | 22 | 4.0 | 4.0 | 0.00 | 0.00 | 0.00 | 93 | 850.1 |
| 20260505185625 | 38 | 112 | 0.0 | 1.0 | 0.00 | 0.00 | 0.00 | 93 | 850.1 |
| 20260505185550 | 38 | 112 | 0.0 | 1.0 | 0.00 | 0.00 | 0.00 | 93 | 850.1 |
| 20260505185051 | 38 | 22 | 0.0 | 3.0 | 0.00 | 0.00 | 0.00 | 93 | 850.2 |
| 20260505184550 | 38 | 112 | 0.0 | 2.0 | 0.00 | 0.00 | 0.00 | 93 | 850.2 |
| 20260505184050 | 38 | 22 | 0.0 | 6.0 | 0.00 | 0.00 | 0.00 | 93 | 850.1 |
| 20260505183551 | 38 | 67 | 0.0 | 3.0 | 0.00 | 0.00 | 0.00 | 93 | 850.2 |
| 20260505183050 | 37 | 90 | 0.0 | 7.0 | 0.00 | 0.00 | 0.00 | 93 | 850.0 |
| 20260505182550 | 38 | 0 | 0.0 | 7.0 | 0.00 | 0.00 | 0.00 | 93 | 850.0 |
| 20260505182050 | 38 | 45 | 3.0 | 13.0 | 0.00 | 0.00 | 0.00 | 93 | 849.9 |
| 20260505181550 | 38 | 315 | 3.0 | 10.0 | 0.00 | 0.00 | 0.00 | 93 | 849.7 |
| 20260505181050 | 38 | 315 | 6.0 | 15.0 | 0.00 | 0.00 | 0.00 | 93 | 849.8 |
| 20260505180550 | 38 | 22 | 7.0 | 15.0 | 0.00 | 0.00 | 0.00 | 93 | 850.1 |
| 20260505180051 | 37 | 292 | 6.0 | 10.0 | 0.00 | 0.00 | 0.00 | 93 | 850.0 |
| 20260505175550 | 37 | 315 | 5.0 | 10.0 | 0.00 | 0.00 | 0.00 | 93 | 849.6 |
| 20260505175050 | 37 | 315 | 5.0 | 13.0 | 0.00 | 0.00 | 0.00 | 93 | 849.6 |
| 20260505174550 | 37 | 292 | 1.0 | 6.0 | 0.00 | 0.00 | 0.00 | 93 | 849.6 |
| 20260505174051 | 37 | 315 | 0.0 | 5.0 | 0.00 | 0.00 | 0.00 | 93 | 849.7 |
| 20260505173550 | 37 | 315 | 1.0 | 4.0 | 0.00 | 0.00 | 0.00 | 93 | 849.6 |
| 20260505173050 | 37 | 315 | 5.0 | 10.0 | 0.00 | 0.00 | 0.00 | 92 | 849.8 |
| 20260505172550 | 37 | 315 | 1.0 | 6.0 | 0.00 | 0.00 | 0.00 | 92 | 850.0 |
| 20260505172050 | 37 | 315 | 3.0 | 7.0 | 0.00 | 0.00 | 0.00 | 92 | 850.0 |
| 20260505171551 | 37 | 315 | 6.0 | 7.0 | 0.00 | 0.00 | 0.00 | 92 | 850.2 |
| 20260505171050 | 37 | 315 | 5.0 | 7.0 | 0.00 | 0.00 | 0.00 | 92 | 850.3 |
| 20260505170550 | 37 | 315 | 6.0 | 9.0 | 0.00 | 0.00 | 0.00 | 92 | 850.4 |
| 20260505170051 | 37 | 315 | 6.0 | 9.0 | 0.00 | 0.00 | 0.00 | 92 | 850.4 |
| 20260505165550 | 37 | 292 | 9.0 | 9.0 | 0.00 | 0.00 | 0.00 | 92 | 850.8 |
| 20260505165052 | 37 | 22 | 0.0 | 27.0 | 0.00 | 0.00 | 0.00 | 92 | 851.5 |
| 20260505164550 | 37 | 315 | 8.0 | 8.0 | 0.00 | 0.00 | 0.00 | 92 | 851.5 |
| 20260505164051 | 37 | 315 | 6.0 | 8.0 | 0.00 | 0.00 | 0.00 | 92 | 850.5 |
| 20260505163551 | 38 | 292 | 6.0 | 8.0 | 0.00 | 0.00 | 0.00 | 92 | 850.3 |
| 20260505163051 | 38 | 292 | 6.0 | 8.0 | 0.00 | 0.00 | 0.00 | 92 | 849.9 |
| 20260505162551 | 38 | 292 | 7.0 | 8.0 | 0.00 | 0.00 | 0.00 | 92 | 850.0 |
| 20260505162051 | 38 | 315 | 6.0 | 8.0 | 0.00 | 0.00 | 0.00 | 91 | 849.9 |
| 20260505161551 | 38 | 292 | 8.0 | 10.0 | 0.00 | 0.00 | 0.00 | 91 | 849.9 |
| 20260505161051 | 38 | 292 | 6.0 | 10.0 | 0.00 | 0.00 | 0.00 | 91 | 849.8 |
| 20260505160551 | 38 | 292 | 2.0 | 9.0 | 0.00 | 0.00 | 0.00 | 91 | 850.1 |
| 20260505153051 | 38 | 315 | 6.0 | 9.0 | 0.00 | 0.00 | 0.00 | 92 | 850.6 |
| 20260505152551 | 37 | 292 | 6.0 | 9.0 | 0.00 | 0.00 | 0.00 | 92 | 851.2 |
| 20260505152051 | 37 | 292 | 7.0 | 11.0 | 0.00 | 0.00 | 0.00 | 92 | 851.4 |
| 20260505151551 | 37 | 292 | 9.0 | 10.0 | 0.00 | 0.00 | 0.00 | 92 | 851.4 |
| 20260505151051 | 37 | 292 | 8.0 | 8.0 | 0.00 | 0.00 | 0.00 | 92 | 851.0 |
| 20260505150551 | 37 | 292 | 6.0 | 9.0 | 0.00 | 0.00 | 0.00 | 92 | 850.8 |
| 20260505140551 | 37 | 292 | 3.0 | 3.0 | 0.00 | 0.00 | 0.00 | 92 | 852.2 |
| 20260505124551 | 36 | 315 | 5.0 | 7.0 | 0.00 | 0.00 | 0.00 | 92 | 851.1 |
| 20260505124052 | 36 | 315 | 7.0 | 8.0 | 0.00 | 0.00 | 0.00 | 92 | 851.8 |